This is the latest recevied weather packets stored in our database for station/object NN5DX-13. If no packets are shown the sender has not sent any weather packets the latest 10 day(s).
| Time | Temp. | Humidity | Pressure | Rain* | Wind** | Luminosity | Snow |
|---|---|---|---|---|---|---|---|
| 1777673716 | 16.11° C | 79% | 1013.9 hPa | 0 mm | - | - | - |
| 1777673418 | 16.11° C | 79% | 1014 hPa | 0 mm | - | - | - |
| 1777673118 | 16.11° C | 79% | 1013.9 hPa | 0 mm | - | - | - |
| 1777672518 | 16.11° C | 78% | 1013.8 hPa | 0 mm | - | - | - |
| 1777672218 | 16.11° C | 79% | 1013.9 hPa | 0 mm | - | - | - |
| 1777671918 | 16.11° C | 80% | 1013.9 hPa | 0 mm | - | - | - |
| 1777671318 | 16.11° C | 79% | 1013.9 hPa | 0 mm | - | - | - |
| 1777671018 | 16.11° C | 81% | 1013.8 hPa | 0 mm | - | - | - |
| 1777670418 | 16.11° C | 85% | 1013.8 hPa | 0 mm | - | - | - |
| 1777670118 | 15.56° C | 86% | 1013.9 hPa | 0 mm | - | - | - |
| 1777669518 | 16.11° C | 89% | 1014 hPa | 0 mm | - | - | - |
| 1777669217 | 15.56° C | 89% | 1014 hPa | 0 mm | - | - | - |
| 1777668918 | 15° C | 92% | 1013.9 hPa | 0 mm | - | - | - |
| 1777668318 | 14.44° C | 94% | 1014.1 hPa | 0 mm | - | - | - |
| 1777667718 | 14.44° C | 95% | 1014.1 hPa | 0 mm | - | - | - |
| 1777667418 | 13.89° C | 95% | 1013.8 hPa | 0 mm | - | - | - |
| 1777666218 | 13.89° C | 95% | 1013.4 hPa | 0 mm | - | - | - |
| 1777665018 | 13.89° C | 96% | 1013.3 hPa | 0 mm | - | - | - |
| 1777663818 | 13.89° C | 95% | 1013.2 hPa | 0 mm | - | - | - |
| 1777663218 | 13.89° C | 95% | 1014.1 hPa | 0 mm | - | - | - |
| 1777662318 | 13.89° C | 95% | 1014.4 hPa | 0 mm | - | - | - |
| 1777660517 | 14.44° C | 95% | 1014.2 hPa | 0 mm | - | - | - |
| 1777659618 | 14.44° C | 95% | 1014.2 hPa | 0 mm | - | - | - |
| 1777659317 | 14.44° C | 95% | 1014.2 hPa | 0 mm | - | - | - |
| 1777659017 | 15° C | 95% | 1014.3 hPa | 0 mm | - | - | - |
* Rain latest hour (hover to see other rain measurements)
** Current wind speed in m/s (hover to see current wind gust speed)